カタログに戻る

CZ-8 R/B

運用中PO
NORAD 63177·ROCKET BODY·🇨🇳 China

打ち上げ Mar 11, 2025 から Wenchang Space Launch Site

Loading…

次のパス (今後24時間)

TLE

最新Source: Space-Track

元期: Sep 14, 2026, 14:07 UTC

1 63177U 25046U   26257.58876114  .00000235  00000-0  12331-3 0  9996
2 63177  88.9628 285.6866 0063078 158.5541 201.8308 14.09670170 87687

AllMySatでCZ-8 R/Bをリアルタイム追跡

Download on the App Store